Home   Weather   Herstmonceux   Past weeks
Flag for United Kingdom

Past Weather in Herstmonceux, England, United Kingdom — Yesterday and Last 2 Weeks

Now
48 °F

Fog.


Feels Like: 48 °F
Forecast: 68 / 59 °F
Wind: 1 mph from Northeast

Location: Herstmonceux

Current Time: Aug 22, 2019 at 6:28:28 am

Latest Report: Aug 22, 2019 at 5:00 am


Visibility: 4 mi

Pressure: 30.28 "Hg

Humidity: 99%

Dew Point: 48 °F

Location of HerstmonceuxLocation

Past Weather in Herstmonceux — Graph

°F

Herstmonceux Temperature Yesterday

Maximum temperature yesterday: 69 °F (at 4:00 pm)
Minimum temperature yesterday: 47 °F (at 5:00 am)
Average temperature yesterday: 58 °F

High & Low Weather Summary for the Past Weeks

 TemperatureHumidityPressure
High73 °F (Aug 9, 3:00 pm)100% (Aug 14, 7:00 am)30.37 "Hg (Aug 14, 7:00 am)
Low47 °F (Aug 13, 6:00 am)50% (Aug 15, 4:00 pm)29.56 "Hg (Aug 10, 2:00 am)
Average61 °F83%29.92 "Hg
* Reported Aug 7 5:00 am — Aug 22 5:00 am, Herstmonceux. Weather by CustomWeather, © 2019

Note: Actual official high and low records may vary slightly from our data, if they occured in-between our weather recording intervals... More about our weather records

Advertising

Herstmonceux Weather History for the Previous 24 Hours

Scroll right to see more
 ConditionsComfort  
Time TempWeatherWind HumidityBarometerVisibility
5:00 am
Thu, Aug 22
48 °FFog.1 mph99%30.28 "Hg4 mi
4:00 am49 °FFog.No wind99%30.28 "Hg4 mi
3:00 am49 °FFog.2 mph99%30.28 "Hg6 mi
2:00 am48 °FFog.1 mph97%30.29 "Hg4 mi
1:00 am49 °FCool.No wind96%30.30 "Hg9 mi
12:00 am51 °FCool.No wind96%30.30 "Hg9 mi
11:00 pm
Wed, Aug 21
51 °FCool.No wind95%30.32 "Hg7 mi
10:00 pm53 °FCool.1 mph92%30.31 "Hg10 mi
9:00 pm56 °FCool.1 mph82%30.31 "Hg16 mi
8:00 pm60 °FCool.2 mph73%30.30 "Hg12 mi
7:00 pm64 °FMild.6 mph61%30.29 "Hg19 mi
6:00 pm68 °FMild.5 mph54%30.30 "Hg17 mi
5:00 pm68 °FMild.5 mph56%30.31 "Hg16 mi
4:00 pm69 °FMild.6 mph56%30.32 "Hg25 mi
3:00 pm67 °FMild.7 mph60%30.32 "Hg19 mi
2:00 pm67 °FMild.5 mph61%30.33 "Hg15 mi
1:00 pm66 °FMild.7 mph67%30.35 "Hg14 mi
12:00 pm67 °FMild.7 mph71%30.36 "Hg11 mi
11:00 am65 °FMild.6 mph72%30.36 "Hg14 mi
10:00 am63 °FMild.5 mph69%30.37 "Hg19 mi
9:00 am60 °FCool.2 mph86%30.37 "Hg25 mi
8:00 am53 °FCool.1 mph100%30.37 "Hg13 mi
7:00 am48 °FCool.1 mph98%30.36 "Hg17 mi
6:00 am48 °FCool.2 mph99%30.35 "Hg12 mi
Weather by CustomWeather, © 2019

See weather overview